Location: Castel di Decima
(41.7500°N, 12.4333°E)
Time: 19:00:56
(UTC+00:00)

Daily predictions for brighter satellites

Satellite Brightness Start Highest point End
(mag) Time Altitude Azimuth Time Altitude Azimuth Time Altitude Azimuth
Unknown 4.0 16:50:49 10° WSW 16:54:57 66° NW 16:59:04 10° NE
Cosmos 1825 Rocket 3.7 16:52:03 10° N 16:56:18 49° E 17:00:33 10° SSE
Unknown 4.0 16:52:30 10° WSW 16:56:36 64° NW 17:00:44 10° NE
Cosmos 1953 Rocket 4.2 16:53:25 10° N 16:57:26 34° ENE 17:01:23 10° SE
Unknown 4.1 16:54:11 10° WSW 16:58:17 62° NW 17:02:25 10° NE
ATLAS 5 CENTAUR R/B 1.8 16:54:41 10° SW 16:58:51 74° NW 17:03:31 10° NNE
Cosmos 304 Rocket 4.1 16:55:37 10° SSW 17:00:24 71° WNW 17:05:14 10° NNE
Unknown 4.1 16:57:31 10° WSW 17:01:36 58° NW 17:05:42 10° NE
Unknown 4.2 16:59:13 10° WSW 17:03:17 55° NNW 17:07:21 10° NE
Unknown 4.4 16:59:33 10° WSW 17:03:35 51° NNW 17:07:38 10° NE
Unknown 4.4 17:01:10 10° WSW 17:05:12 50° NNW 17:09:15 10° NE
COBE Rocket 4.0 17:01:07 10° NNE 17:06:19 72° E 17:11:23 10° S
BREEZE-M DEB (TANK) 4.2 17:03:18 10° NW 17:07:25 43° NNE 17:17:21 10° E
Unknown 4.3 17:04:09 10° WSW 17:08:12 52° NNW 17:12:17 10° NE
Cosmos 1606 Rocket 3.5 17:04:41 10° S 17:09:02 65° E 17:13:23 10° NNE
Unknown 4.4 17:07:32 10° WSW 17:11:33 50° NNW 17:15:36 10° NE
Unknown 4.4 17:09:17 10° WSW 17:13:18 48° NNW 17:17:20 10° NE
Cosmos 2263 Rocket 4.5 17:09:53 10° WSW 17:14:21 23° NW 17:18:49 10° N
CSL-04 Rocket 3.9 17:09:25 10° SE 17:14:46 51° ENE 17:20:06 10° N
Unknown 4.5 17:10:54 10° WSW 17:14:54 47° NNW 17:18:55 10° NE
Meteor 2-12 Rocket 4.4 17:09:10 10° N 17:15:22 77° E 17:21:31 10° SSE
Cosmos 2285 Rocket 4.0 17:11:34 10° NNW 17:18:02 77° ENE 17:24:26 10° SSE
Cosmos 1758 Rocket 3.7 17:14:40 10° N 17:19:08 83° W 17:23:36 10° S
Envisat 3.0 17:15:45 10° SSE 17:20:49 88° WSW 17:25:57 10° NNW
CZ-2D R/B 4.1 17:20:01 10° SE 17:23:18 28° ENE 17:26:38 10° N
SL-4 R/B 1.8 17:19:30 10° NW 17:23:20 61° NNE 17:26:08 16° ESE
Cosmos 1271 Rocket 2.7 17:22:24 10° N 17:26:23 81° E 17:30:23 10° SSE
EO 1 Delta rocket 4.1 17:22:35 10° SSE 17:27:01 44° ENE 17:31:28 10° N
Cosmos 1833 Rocket 4.0 17:27:36 10° N 17:31:46 21° NE 17:33:52 17° E
SKYMED 2 3.8 17:29:00 10° N 17:33:20 72° WNW 17:37:39 10° SSW
Cosmos 1626 4.3 17:31:04 10° NNW 17:34:20 30° W 17:37:36 10° SSW
Cosmos 1356 3.5 17:32:45 10° S 17:36:05 50° E 17:39:26 10° NNE
YAOGAN 1 2.5 17:32:21 10° SSE 17:36:40 77° ENE 17:41:00 10° N
Cosmos 1953 3.5 17:33:38 10° SSW 17:37:33 47° WNW 17:41:29 10° N
Cosmos 1726 2.0 17:35:48 10° S 17:39:24 63° E 17:43:02 10° NNE
Cosmos 1703 3.4 17:38:07 10° N 17:41:57 47° E 17:45:44 10° SSE
ADEOS Rocket 4.4 17:37:35 10° NE 17:43:22 23° E 17:48:53 10° SE
CZ-4C R/B 3.6 17:39:09 10° NW 17:46:28 62° WSW 17:54:36 10° SSE
COSMOS 2406 3.4 17:42:22 10° NNW 17:48:02 54° ENE 17:52:47 14° SE
Cosmos 2082 Rocket 3.5 17:45:07 10° N 17:49:19 20° NE 17:50:12 20° ENE
IRS-1A Rocket 4.5 17:44:51 10° SE 17:50:03 45° ENE 17:55:16 10° N
Cosmos 1726 Rocket 4.4 17:47:02 10° SSW 17:51:21 53° W 17:55:39 10° N
ASTEX 1 4.0 17:49:18 10° N 17:54:09 59° W 17:59:01 10° SSW
CSL-04 Debris 4.4 17:49:31 10° S 17:54:56 73° WSW 18:00:25 10° NNW
Cosmos 1339 Rocket 4.4 17:49:45 10° S 17:55:42 64° E 18:01:45 10° NNE
Meteor 1-11 4.2 17:52:55 10° N 17:58:40 68° E 18:04:26 10° SSE
Cosmos 1242 Rocket 2.7 17:55:51 10° NNW 17:59:32 78° W 18:03:12 10° S
Shenzhou-11 Module 1.7 17:58:12 10° W 18:00:58 75° N 18:00:58 75° N
Cosmos 2058 Rocket 3.5 17:56:54 10° SSW 18:01:14 64° W 18:05:34 10° N
Cosmos 1939 Rocket 2.7 17:58:07 10° SSE 18:02:02 74° ENE 18:06:03 10° N
OAO 2 Rocket 4.2 17:57:34 10° WSW 18:02:29 40° S 18:04:44 27° SE
USA 238 DEB 4.1 17:57:09 10° S 18:03:06 36° ESE 18:05:37 27° ENE
USA 238 4.1 17:57:17 10° S 18:03:13 35° ESE 18:05:38 27° ENE
Ariane Rocket 2.9 17:58:21 10° SSE 18:03:24 67° ENE 18:08:29 10° N
Abrixas rocket 3.4 18:00:56 10° SSW 18:02:55 28° S 18:02:55 28° S
OAO 3 Rocket 4.1 18:01:25 10° WSW 18:05:57 37° S 18:07:26 30° SE
SPOT 3 Rocket 4.4 18:09:12 29° ENE 18:09:12 29° ENE 18:13:16 10° N
Cosmos 1605 Rocket 3.8 18:03:58 10° N 18:10:13 81° E 18:16:20 10° S
Lacrosse 5 rocket 1.6 18:07:42 10° NW 18:11:28 58° SW 18:13:01 33° SSE
Cosmos 482 Debris 3.7 18:07:31 10° NW 18:12:00 72° NNE 18:12:02 72° NE
Cosmos 1844 Rocket 4.3 18:07:30 10° WSW 18:12:36 34° WNW 18:17:42 10° N
Meteor 2-10 4.4 18:08:55 10° SSW 18:13:59 63° WNW 18:19:00 10° N
Cosmos 1727 Rocket 3.9 18:08:08 10° S 18:14:12 61° E 18:20:16 10° NNE
USA 234 3.8 18:13:46 32° ESE 18:14:37 33° SE 18:20:23 10° S
Cosmos 1908 3.7 18:15:10 10° SSW 18:19:02 61° W 18:22:55 10° N
CZ-4 R/B 3.8 18:17:45 10° SSW 18:21:09 25° W 18:24:37 10° NW
Cosmos 1777 Rocket 3.8 18:20:40 10° NNW 18:25:55 81° ENE 18:27:47 41° SSE
H-2A R/B 3.0 18:28:31 33° NE 18:28:31 33° NE 18:32:13 10° N
Cosmos 2278 Rocket 2.1 18:22:41 10° SSW 18:28:21 84° ESE 18:34:04 10° NNE
NOSS 3-2 (A) 3.9 18:24:53 10° S 18:28:51 37° SSE 18:28:51 37° SSE
Cosmos 839 Rocket 4.2 18:25:17 10° NW 18:31:32 78° WSW 18:36:18 22° SSE
Cosmos 2173 Rocket 4.2 18:26:10 10° N 18:31:57 45° ENE 18:31:57 45° ENE
HJ-1C 4.4 18:33:05 43° NW 18:33:05 43° NW 18:35:34 10° NNW
Lacrosse 5 3.1 18:31:55 10° NNW 18:35:56 28° NNE 18:35:56 28° NNE
ATLAS 5 CENTAUR R/B 4.4 18:42:09 10° WNW 18:44:29 14° NNW 18:46:58 10° N
Cosmos 2100 Rocket 3.8 18:43:34 10° N 18:49:41 67° ENE 18:49:41 67° ENE
SL-4 R/B 4.3 18:59:57 10° W 19:01:45 17° WSW 19:01:45 17° WSW
Gbstr 26 Del rocket 4.3 19:06:28 10° NW 19:12:54 63° NNE 19:12:54 63° NNE
ARGOS 4.1 19:15:47 40° NNW 19:15:47 40° NNW 19:19:12 10° NNW
Cosmos 1833 Rocket 3.1 19:10:38 10° NNW 19:15:36 60° WNW 19:15:36 60° WNW
ADEOS Rocket 3.6 19:21:46 10° N 19:29:31 73° WNW 19:36:44 10° SSW
Cosmos 2082 Rocket 3.2 19:28:17 10° NNW 19:32:05 42° NW 19:32:05 42° NW
USA 238 DEB 4.4 19:47:22 10° WSW 19:53:10 47° WNW 19:53:10 47° WNW
USA 238 4.4 19:47:28 10° WSW 19:53:11 47° WNW 19:53:11 47° WNW
H-2A R/B 4.4 20:09:10 21° NW 20:09:10 21° NW 20:11:23 10° NW
